Year,Month,Day,Hour,Minute,Value (Times are PST for windgust in km/hr)
2017,05,25,07,54,1.60
2017,05,25,08,04,3.20
2017,05,25,08,05,1.60
2017,05,25,08,06,1.60
2017,05,25,08,07,1.60
2017,05,25,08,08,6.40
2017,05,25,08,09,4.80
2017,05,25,08,10,6.40
2017,05,25,08,11,4.80
2017,05,25,08,12,4.80
2017,05,25,08,13,4.80
2017,05,25,08,14,6.40
2017,05,25,08,15,1.60
2017,05,25,08,16,6.40
2017,05,25,08,17,8.10
2017,05,25,08,18,11.30
2017,05,25,08,19,9.60
2017,05,25,08,20,14.50
2017,05,25,08,21,9.60
2017,05,25,08,22,17.70
2017,05,25,08,23,16.10
2017,05,25,08,24,14.50
2017,05,25,08,25,14.50
2017,05,25,08,26,11.30
2017,05,25,08,27,6.40
2017,05,25,08,28,9.60
2017,05,25,08,29,8.10
2017,05,25,08,30,9.60
2017,05,25,08,31,9.60
2017,05,25,08,32,12.90
2017,05,25,08,33,9.60
2017,05,25,08,34,8.10
2017,05,25,08,35,9.60
2017,05,25,08,36,9.60
2017,05,25,08,37,16.10
2017,05,25,08,38,17.70
2017,05,25,08,39,9.60
2017,05,25,08,40,11.30
2017,05,25,08,41,16.10
2017,05,25,08,42,12.90
2017,05,25,08,43,8.10
2017,05,25,08,44,11.30
2017,05,25,08,45,16.10
2017,05,25,08,46,14.50
2017,05,25,08,47,16.10
2017,05,25,08,48,14.50
2017,05,25,08,49,11.30
2017,05,25,08,50,14.50
2017,05,25,08,51,8.10
2017,05,25,08,52,8.10
2017,05,25,08,53,9.60
2017,05,25,08,54,9.60
2017,05,25,08,55,11.30
2017,05,25,08,56,11.30
2017,05,25,08,57,14.50
2017,05,25,08,58,11.30
2017,05,25,08,59,9.60
2017,05,25,09,00,9.60
2017,05,25,09,01,14.50
2017,05,25,09,02,17.70
2017,05,25,09,03,12.90
2017,05,25,09,04,11.30
2017,05,25,09,05,11.30
2017,05,25,09,06,11.30
2017,05,25,09,07,11.30
2017,05,25,09,08,12.90
2017,05,25,09,09,12.90
2017,05,25,09,10,16.10
2017,05,25,09,11,11.30
2017,05,25,09,12,17.70
2017,05,25,09,13,16.10
2017,05,25,09,14,11.30
2017,05,25,09,15,11.30
2017,05,25,09,16,16.10
2017,05,25,09,17,16.10
2017,05,25,09,18,16.10
2017,05,25,09,19,16.10
2017,05,25,09,20,14.50
2017,05,25,09,21,11.30
2017,05,25,09,22,14.50
2017,05,25,09,23,16.10
2017,05,25,09,24,17.70
2017,05,25,09,25,19.30
2017,05,25,09,26,17.70
2017,05,25,09,27,17.70
2017,05,25,09,28,17.70
2017,05,25,09,29,16.10
2017,05,25,09,30,19.30
2017,05,25,09,31,17.70
2017,05,25,09,32,16.10
2017,05,25,09,33,22.50
2017,05,25,09,34,17.70
2017,05,25,09,35,14.50
2017,05,25,09,36,11.30
2017,05,25,09,37,14.50
2017,05,25,09,38,19.30
2017,05,25,09,39,19.30
2017,05,25,09,40,14.50
2017,05,25,09,41,17.70
2017,05,25,09,42,17.70
2017,05,25,09,43,17.70
2017,05,25,09,44,17.70
2017,05,25,09,45,19.30
2017,05,25,09,46,20.90
2017,05,25,09,47,22.50
2017,05,25,09,48,19.30
2017,05,25,09,49,19.30
2017,05,25,09,50,16.10
2017,05,25,09,51,17.70
2017,05,25,09,52,16.10
2017,05,25,09,53,16.10
2017,05,25,09,54,14.50
2017,05,25,09,55,8.10
2017,05,25,09,56,14.50
2017,05,25,09,57,19.30
2017,05,25,09,58,20.90
2017,05,25,09,59,20.90
2017,05,25,10,00,16.10
2017,05,25,10,01,20.90
2017,05,25,10,02,17.70
2017,05,25,10,03,19.30
2017,05,25,10,04,19.30
2017,05,25,10,05,16.10
2017,05,25,10,06,16.10
2017,05,25,10,07,20.90
2017,05,25,10,08,22.50
2017,05,25,10,09,20.90
2017,05,25,10,10,19.30
2017,05,25,10,11,16.10
2017,05,25,10,12,11.30
2017,05,25,10,13,17.70
2017,05,25,10,14,14.50
2017,05,25,10,15,14.50
2017,05,25,10,16,19.30
2017,05,25,10,17,17.70
2017,05,25,10,18,19.30
2017,05,25,10,19,19.30
2017,05,25,10,20,17.70
2017,05,25,10,21,16.10
2017,05,25,10,22,20.90
2017,05,25,10,23,17.70
2017,05,25,10,24,19.30
2017,05,25,10,25,16.10
2017,05,25,10,26,16.10
2017,05,25,10,27,20.90
2017,05,25,10,28,16.10
2017,05,25,10,29,19.30
2017,05,25,10,30,22.50
2017,05,25,10,31,12.90
2017,05,25,10,32,24.20
2017,05,25,10,33,20.90
2017,05,25,10,34,24.20
2017,05,25,10,35,22.50
2017,05,25,10,36,22.50
2017,05,25,10,37,11.30
2017,05,25,10,38,17.70
2017,05,25,10,39,19.30
2017,05,25,10,40,14.50
2017,05,25,10,41,16.10
2017,05,25,10,42,14.50
2017,05,25,10,43,16.10
2017,05,25,10,44,14.50
2017,05,25,10,45,11.30
2017,05,25,10,46,14.50
2017,05,25,10,47,17.70
2017,05,25,10,48,16.10
2017,05,25,10,49,19.30
2017,05,25,10,50,8.10
2017,05,25,10,51,11.30
2017,05,25,10,52,14.50
2017,05,25,10,53,14.50
2017,05,25,10,54,17.70
2017,05,25,10,55,14.50
2017,05,25,10,56,17.70
2017,05,25,10,57,16.10
2017,05,25,10,58,16.10
2017,05,25,10,59,19.30
2017,05,25,11,00,20.90
2017,05,25,11,01,16.10
2017,05,25,11,02,16.10
2017,05,25,11,03,16.10
2017,05,25,11,04,12.90
2017,05,25,11,05,16.10
2017,05,25,11,06,16.10
2017,05,25,11,07,22.50
2017,05,25,11,08,22.50
2017,05,25,11,09,17.70
2017,05,25,11,10,20.90
2017,05,25,11,11,17.70
2017,05,25,11,12,11.30
2017,05,25,11,13,17.70
2017,05,25,11,14,17.70
2017,05,25,11,15,22.50
2017,05,25,11,16,16.10
2017,05,25,11,17,19.30
2017,05,25,11,18,20.90
2017,05,25,11,19,19.30
2017,05,25,11,20,20.90
2017,05,25,11,21,22.50
2017,05,25,11,22,19.30
2017,05,25,11,23,17.70
2017,05,25,11,24,17.70
2017,05,25,11,25,16.10
2017,05,25,11,26,24.20
2017,05,25,11,27,20.90
2017,05,25,11,28,24.20
2017,05,25,11,29,22.50
2017,05,25,11,30,25.70
2017,05,25,11,31,25.70
2017,05,25,11,32,17.70
2017,05,25,11,33,24.20
2017,05,25,11,34,27.40
2017,05,25,11,35,19.30
2017,05,25,11,36,25.70
2017,05,25,11,37,22.50
2017,05,25,11,38,20.90
2017,05,25,11,39,20.90
2017,05,25,11,40,11.30
2017,05,25,11,41,17.70
2017,05,25,11,42,17.70
2017,05,25,11,43,17.70
2017,05,25,11,44,16.10
2017,05,25,11,45,16.10
2017,05,25,11,46,24.20
2017,05,25,11,47,20.90
2017,05,25,11,48,16.10
2017,05,25,11,49,14.50
2017,05,25,11,50,20.90
2017,05,25,11,51,19.30
2017,05,25,11,52,17.70
2017,05,25,11,53,14.50
2017,05,25,11,54,11.30
2017,05,25,11,55,11.30
2017,05,25,11,56,16.10
2017,05,25,11,57,19.30
2017,05,25,11,58,17.70
2017,05,25,11,59,17.70
2017,05,25,12,00,20.90
2017,05,25,12,01,16.10
2017,05,25,12,02,17.70
2017,05,25,12,03,19.30
2017,05,25,12,04,20.90
2017,05,25,12,05,19.30
2017,05,25,12,06,16.10
2017,05,25,12,07,22.50
2017,05,25,12,08,16.10
2017,05,25,12,09,14.50
2017,05,25,12,10,16.10
2017,05,25,12,11,16.10
2017,05,25,12,12,17.70
2017,05,25,12,13,19.30
2017,05,25,12,14,12.90
2017,05,25,12,15,16.10
2017,05,25,12,16,11.30
2017,05,25,12,17,20.90
2017,05,25,12,18,16.10
2017,05,25,12,19,17.70
2017,05,25,12,20,17.70
2017,05,25,12,21,19.30
2017,05,25,12,22,19.30
2017,05,25,12,23,17.70
2017,05,25,12,24,20.90
2017,05,25,12,25,20.90
2017,05,25,12,26,16.10
2017,05,25,12,27,16.10
2017,05,25,12,28,17.70
2017,05,25,12,29,20.90
2017,05,25,12,30,22.50
2017,05,25,12,31,19.30
2017,05,25,12,32,19.30
2017,05,25,12,33,17.70
2017,05,25,12,34,19.30
2017,05,25,12,35,17.70
2017,05,25,12,36,16.10
2017,05,25,12,37,20.90
2017,05,25,12,38,24.20
2017,05,25,12,39,17.70
2017,05,25,12,40,19.30
2017,05,25,12,41,11.30
2017,05,25,12,42,14.50
2017,05,25,12,43,17.70
2017,05,25,12,44,16.10
2017,05,25,12,45,17.70
2017,05,25,12,46,20.90
2017,05,25,12,47,16.10
2017,05,25,12,48,19.30
2017,05,25,12,49,12.90
2017,05,25,12,50,14.50
2017,05,25,12,51,24.20
2017,05,25,12,52,20.90
2017,05,25,12,53,22.50
2017,05,25,12,54,20.90
2017,05,25,12,55,20.90
2017,05,25,12,56,17.70
2017,05,25,12,57,20.90
2017,05,25,12,58,20.90
2017,05,25,12,59,22.50
2017,05,25,13,00,22.50
2017,05,25,13,01,17.70
2017,05,25,13,02,17.70
2017,05,25,13,03,16.10
2017,05,25,13,04,20.90
2017,05,25,13,05,16.10
2017,05,25,13,06,17.70
2017,05,25,13,07,17.70
2017,05,25,13,08,19.30
2017,05,25,13,09,14.50
2017,05,25,13,10,20.90
2017,05,25,13,11,19.30
2017,05,25,13,12,24.20
2017,05,25,13,13,17.70
2017,05,25,13,14,17.70
2017,05,25,13,15,16.10
2017,05,25,13,16,16.10
2017,05,25,13,17,19.30
2017,05,25,13,18,19.30
2017,05,25,13,19,22.50
2017,05,25,13,20,19.30
2017,05,25,13,21,20.90
2017,05,25,13,22,16.10
2017,05,25,13,23,11.30
2017,05,25,13,24,14.50
2017,05,25,13,25,11.30
2017,05,25,13,26,19.30
2017,05,25,13,27,16.10
2017,05,25,13,28,14.50
2017,05,25,13,29,16.10
2017,05,25,13,30,9.60
2017,05,25,13,31,16.10
2017,05,25,13,32,19.30
2017,05,25,13,33,11.30
2017,05,25,13,34,17.70
2017,05,25,13,35,16.10
2017,05,25,13,36,11.30
2017,05,25,13,37,16.10
2017,05,25,13,38,9.60
2017,05,25,13,39,12.90
2017,05,25,13,40,11.30
2017,05,25,13,41,9.60
2017,05,25,13,42,14.50
2017,05,25,13,43,17.70
2017,05,25,13,44,11.30
2017,05,25,13,45,11.30
2017,05,25,13,46,14.50
2017,05,25,13,47,9.60
2017,05,25,13,48,12.90
2017,05,25,13,49,11.30
2017,05,25,13,50,9.60
2017,05,25,13,51,16.10
2017,05,25,13,52,14.50
2017,05,25,13,53,11.30
2017,05,25,13,54,8.10
2017,05,25,13,55,4.80
2017,05,25,13,56,12.90
2017,05,25,13,57,9.60
2017,05,25,13,58,11.30
2017,05,25,13,59,14.50
2017,05,25,14,00,11.30
2017,05,25,14,01,8.10
2017,05,25,14,02,17.70
2017,05,25,14,03,16.10
2017,05,25,14,04,17.70
2017,05,25,14,05,9.60
2017,05,25,14,06,8.10
2017,05,25,14,07,12.90
2017,05,25,14,08,8.10
2017,05,25,14,09,4.80
2017,05,25,14,10,11.30
2017,05,25,14,11,6.40
2017,05,25,14,12,9.60
2017,05,25,14,13,8.10
2017,05,25,14,14,17.70
2017,05,25,14,15,8.10
2017,05,25,14,16,1.60
2017,05,25,14,17,8.10
2017,05,25,14,18,9.60
2017,05,25,14,19,4.80
2017,05,25,14,20,1.60
2017,05,25,14,21,8.10
2017,05,25,14,22,9.60
2017,05,25,14,23,6.40
2017,05,25,14,24,4.80
2017,05,25,14,25,4.80
2017,05,25,14,26,1.60
2017,05,25,14,29,3.20
2017,05,25,14,30,3.20
2017,05,25,14,31,4.80
2017,05,25,14,32,3.20
2017,05,25,14,33,4.80
2017,05,25,14,34,6.40
2017,05,25,14,35,6.40
2017,05,25,14,36,8.10
2017,05,25,14,37,6.40
2017,05,25,14,38,4.80
2017,05,25,14,39,6.40
2017,05,25,14,40,11.30
2017,05,25,14,41,9.60
2017,05,25,14,42,8.10
2017,05,25,14,43,8.10
2017,05,25,14,44,1.60
2017,05,25,14,46,1.60
2017,05,25,14,47,6.40
2017,05,25,14,48,3.20
2017,05,25,14,49,8.10
2017,05,25,14,50,3.20
2017,05,25,14,51,3.20
2017,05,25,14,53,9.60
2017,05,25,14,54,8.10
2017,05,25,14,55,8.10
2017,05,25,14,56,8.10
2017,05,25,14,57,11.30
2017,05,25,14,58,16.10
2017,05,25,14,59,11.30
2017,05,25,15,00,19.30
2017,05,25,15,01,17.70
2017,05,25,15,02,19.30
2017,05,25,15,03,19.30
2017,05,25,15,04,16.10
2017,05,25,15,05,16.10
2017,05,25,15,06,11.30
2017,05,25,15,07,14.50
2017,05,25,15,08,11.30
2017,05,25,15,09,8.10
2017,05,25,15,10,9.60
2017,05,25,15,11,9.60
2017,05,25,15,12,11.30
2017,05,25,15,13,12.90
2017,05,25,15,14,8.10
2017,05,25,15,15,6.40
2017,05,25,15,16,6.40
2017,05,25,15,17,9.60
2017,05,25,15,18,19.30
2017,05,25,15,19,14.50
2017,05,25,15,20,11.30
2017,05,25,15,21,11.30
2017,05,25,15,22,9.60
2017,05,25,15,23,4.80
2017,05,25,15,24,11.30
2017,05,25,15,25,8.10
2017,05,25,15,26,14.50
2017,05,25,15,27,9.60
2017,05,25,15,28,16.10
2017,05,25,15,29,11.30
2017,05,25,15,30,6.40
2017,05,25,15,31,11.30
2017,05,25,15,32,14.50
2017,05,25,15,33,11.30
2017,05,25,15,34,8.10
2017,05,25,15,35,11.30
2017,05,25,15,36,9.60
2017,05,25,15,37,8.10
2017,05,25,15,38,12.90
2017,05,25,15,39,14.50
2017,05,25,15,40,9.60
2017,05,25,15,41,11.30
2017,05,25,15,42,11.30
2017,05,25,15,43,11.30
2017,05,25,15,44,14.50
2017,05,25,15,45,19.30
2017,05,25,15,46,14.50
2017,05,25,15,47,11.30
2017,05,25,15,48,14.50
2017,05,25,15,49,9.60
2017,05,25,15,50,8.10
2017,05,25,15,51,4.80
2017,05,25,15,52,6.40
2017,05,25,15,53,8.10
2017,05,25,15,54,16.10
2017,05,25,15,55,11.30
2017,05,25,15,56,11.30
2017,05,25,15,57,9.60
2017,05,25,15,58,8.10
2017,05,25,15,59,6.40
2017,05,25,16,00,4.80
2017,05,25,16,01,6.40
2017,05,25,16,02,14.50
2017,05,25,16,03,11.30
2017,05,25,16,04,12.90
2017,05,25,16,05,14.50
2017,05,25,16,06,9.60
2017,05,25,16,07,6.40
2017,05,25,16,08,8.10
2017,05,25,16,09,11.30
2017,05,25,16,10,9.60
2017,05,25,16,11,12.90
2017,05,25,16,12,16.10
2017,05,25,16,13,16.10
2017,05,25,16,14,14.50
2017,05,25,16,15,17.70
2017,05,25,16,16,16.10
2017,05,25,16,17,16.10
2017,05,25,16,18,19.30
2017,05,25,16,19,16.10
2017,05,25,16,20,14.50
2017,05,25,16,21,14.50
2017,05,25,16,22,11.30
2017,05,25,16,23,14.50
2017,05,25,16,24,16.10
2017,05,25,16,25,12.90
2017,05,25,16,26,14.50
2017,05,25,16,27,9.60
2017,05,25,16,28,11.30
2017,05,25,16,29,17.70
2017,05,25,16,30,11.30
2017,05,25,16,31,14.50
2017,05,25,16,32,16.10
2017,05,25,16,33,6.40
2017,05,25,16,34,14.50
2017,05,25,16,35,11.30
2017,05,25,16,36,9.60
2017,05,25,16,37,16.10
2017,05,25,16,38,14.50
2017,05,25,16,39,14.50
2017,05,25,16,40,11.30
2017,05,25,16,41,11.30
2017,05,25,16,42,16.10
2017,05,25,16,43,14.50
2017,05,25,16,44,16.10
2017,05,25,16,45,16.10
2017,05,25,16,46,9.60
2017,05,25,16,47,16.10
2017,05,25,16,48,16.10
2017,05,25,16,49,16.10
2017,05,25,16,50,16.10
2017,05,25,16,51,19.30
2017,05,25,16,52,11.30
2017,05,25,16,53,9.60
2017,05,25,16,54,12.90
2017,05,25,16,55,11.30
2017,05,25,16,56,11.30
2017,05,25,16,57,11.30
2017,05,25,16,58,19.30
2017,05,25,16,59,16.10
2017,05,25,17,00,16.10
2017,05,25,17,01,17.70
2017,05,25,17,02,17.70
2017,05,25,17,03,11.30
2017,05,25,17,04,12.90
2017,05,25,17,05,9.60
2017,05,25,17,06,8.10
2017,05,25,17,07,12.90
2017,05,25,17,08,11.30
2017,05,25,17,09,9.60
2017,05,25,17,10,11.30
2017,05,25,17,11,11.30
2017,05,25,17,12,11.30
2017,05,25,17,13,8.10
2017,05,25,17,14,12.90
2017,05,25,17,15,16.10
2017,05,25,17,16,14.50
2017,05,25,17,17,19.30
2017,05,25,17,18,14.50
2017,05,25,17,19,11.30
2017,05,25,17,20,16.10
2017,05,25,17,21,17.70
2017,05,25,17,22,17.70
2017,05,25,17,23,16.10
2017,05,25,17,24,14.50
2017,05,25,17,25,11.30
2017,05,25,17,26,16.10
2017,05,25,17,27,17.70
2017,05,25,17,28,11.30
2017,05,25,17,29,19.30
2017,05,25,17,30,17.70
2017,05,25,17,31,16.10
2017,05,25,17,32,16.10
2017,05,25,17,33,16.10
2017,05,25,17,34,14.50
2017,05,25,17,35,9.60
2017,05,25,17,36,11.30
2017,05,25,17,37,14.50
2017,05,25,17,38,17.70
2017,05,25,17,39,17.70
2017,05,25,17,40,16.10
2017,05,25,17,41,14.50
2017,05,25,17,42,16.10
2017,05,25,17,43,19.30
2017,05,25,17,44,11.30
2017,05,25,17,45,16.10
2017,05,25,17,46,16.10
2017,05,25,17,47,16.10
2017,05,25,17,48,14.50
2017,05,25,17,49,14.50
2017,05,25,17,50,11.30
2017,05,25,17,51,19.30
2017,05,25,17,52,17.70
2017,05,25,17,53,19.30
2017,05,25,17,54,16.10
2017,05,25,17,55,17.70
2017,05,25,17,56,22.50
2017,05,25,17,57,17.70
2017,05,25,17,58,19.30
2017,05,25,17,59,14.50
2017,05,25,18,00,20.90
2017,05,25,18,01,20.90
2017,05,25,18,02,19.30
2017,05,25,18,03,16.10
2017,05,25,18,04,9.60
2017,05,25,18,05,16.10
2017,05,25,18,06,14.50
2017,05,25,18,07,9.60
2017,05,25,18,08,11.30
2017,05,25,18,09,9.60
2017,05,25,18,10,16.10
2017,05,25,18,11,22.50
2017,05,25,18,12,16.10
2017,05,25,18,13,16.10
2017,05,25,18,14,19.30
2017,05,25,18,15,16.10
2017,05,25,18,16,8.10
2017,05,25,18,17,16.10
2017,05,25,18,18,11.30
2017,05,25,18,19,16.10
2017,05,25,18,20,11.30
2017,05,25,18,21,16.10
2017,05,25,18,22,14.50
2017,05,25,18,23,11.30
2017,05,25,18,24,8.10
2017,05,25,18,25,11.30
2017,05,25,18,26,8.10
2017,05,25,18,27,14.50
2017,05,25,18,28,11.30
2017,05,25,18,29,8.10
2017,05,25,18,30,11.30
2017,05,25,18,31,16.10
2017,05,25,18,32,17.70
2017,05,25,18,33,16.10
2017,05,25,18,34,17.70
2017,05,25,18,35,17.70
2017,05,25,18,36,12.90
2017,05,25,18,37,14.50
2017,05,25,18,38,11.30
2017,05,25,18,39,14.50
2017,05,25,18,40,11.30
2017,05,25,18,41,11.30
2017,05,25,18,42,8.10
2017,05,25,18,43,4.80
2017,05,25,18,44,4.80
2017,05,25,18,45,9.60
2017,05,25,18,46,14.50
2017,05,25,18,47,12.90
2017,05,25,18,48,11.30
2017,05,25,18,49,11.30
2017,05,25,18,50,11.30
2017,05,25,18,51,11.30
2017,05,25,18,52,11.30
2017,05,25,18,53,11.30
2017,05,25,18,54,9.60
2017,05,25,18,55,11.30
2017,05,25,18,56,6.40
2017,05,25,18,57,4.80
2017,05,25,18,58,4.80
2017,05,25,18,59,6.40
2017,05,25,19,00,6.40
2017,05,25,19,01,8.10
2017,05,25,19,02,9.60
2017,05,25,19,03,8.10
2017,05,25,19,04,8.10
2017,05,25,19,05,6.40
2017,05,25,19,06,3.20
2017,05,25,19,07,4.80
2017,05,25,19,08,4.80
2017,05,25,19,09,6.40
2017,05,25,19,10,6.40
2017,05,25,19,11,8.10
2017,05,25,19,12,9.60
2017,05,25,19,13,14.50
2017,05,25,19,14,14.50
2017,05,25,19,15,8.10
2017,05,25,19,16,9.60
2017,05,25,19,17,12.90
2017,05,25,19,18,8.10
2017,05,25,19,19,6.40
2017,05,25,19,20,4.80
2017,05,25,19,21,4.80
2017,05,25,19,22,6.40
2017,05,25,19,23,8.10
2017,05,25,19,24,8.10
2017,05,25,19,25,4.80
2017,05,25,19,26,4.80
2017,05,25,19,27,4.80
2017,05,25,19,28,4.80
2017,05,25,19,29,3.20
2017,05,25,19,30,1.60
2017,05,25,19,31,3.20
2017,05,25,19,32,8.10
2017,05,25,19,33,6.40
2017,05,25,19,34,8.10
2017,05,25,19,35,6.40
2017,05,25,19,36,6.40
2017,05,25,19,37,8.10
2017,05,25,19,38,6.40
2017,05,25,19,39,4.80
2017,05,25,19,40,6.40
2017,05,25,19,41,6.40
2017,05,25,19,42,4.80
2017,05,25,19,43,6.40
2017,05,25,19,44,6.40
2017,05,25,19,45,4.80
2017,05,25,19,46,4.80
2017,05,25,19,47,3.20
2017,05,25,19,48,4.80
2017,05,25,19,49,3.20
2017,05,25,19,50,3.20
2017,05,25,19,51,4.80
2017,05,25,19,52,8.10
2017,05,25,19,53,8.10
2017,05,25,19,54,6.40
2017,05,25,19,55,6.40
2017,05,25,19,56,6.40
2017,05,25,19,57,4.80
2017,05,25,19,58,9.60
2017,05,25,19,59,9.60
2017,05,25,20,00,8.10
2017,05,25,20,01,9.60
2017,05,25,20,02,11.30
2017,05,25,20,03,9.60
2017,05,25,20,04,9.60
2017,05,25,20,05,9.60
2017,05,25,20,06,9.60
2017,05,25,20,07,8.10
2017,05,25,20,08,6.40
2017,05,25,20,09,8.10
2017,05,25,20,10,8.10
2017,05,25,20,11,8.10
2017,05,25,20,12,6.40
2017,05,25,20,13,6.40
2017,05,25,20,14,4.80
2017,05,25,20,15,6.40
2017,05,25,20,16,6.40
2017,05,25,20,17,4.80
2017,05,25,20,18,8.10
2017,05,25,20,19,11.30
2017,05,25,20,20,9.60
2017,05,25,20,21,11.30
2017,05,25,20,22,11.30
2017,05,25,20,23,12.90
2017,05,25,20,24,9.60
2017,05,25,20,25,8.10
2017,05,25,20,26,9.60
2017,05,25,20,27,9.60
2017,05,25,20,28,8.10
2017,05,25,20,29,8.10
2017,05,25,20,30,9.60
2017,05,25,20,31,8.10
2017,05,25,20,32,6.40
2017,05,25,20,33,6.40
2017,05,25,20,34,6.40
2017,05,25,20,35,8.10
2017,05,25,20,36,6.40
2017,05,25,20,37,9.60
2017,05,25,20,38,11.30
2017,05,25,20,39,9.60
2017,05,25,20,40,11.30
2017,05,25,20,41,6.40
2017,05,25,20,42,6.40
2017,05,25,20,43,11.30
2017,05,25,20,44,8.10
2017,05,25,20,45,9.60
2017,05,25,20,46,9.60
2017,05,25,20,47,14.50
2017,05,25,20,48,11.30
2017,05,25,20,49,9.60
2017,05,25,20,50,8.10
2017,05,25,20,51,8.10
2017,05,25,20,52,9.60
2017,05,25,20,53,9.60
2017,05,25,20,54,9.60
2017,05,25,20,55,11.30
2017,05,25,20,56,6.40
2017,05,25,20,57,6.40
2017,05,25,20,58,4.80
2017,05,25,20,59,6.40
2017,05,25,21,00,9.60
2017,05,25,21,01,8.10
2017,05,25,21,02,6.40
2017,05,25,21,03,6.40
2017,05,25,21,04,6.40
2017,05,25,21,05,3.20
2017,05,25,21,06,8.10
2017,05,25,21,07,3.20
2017,05,25,21,08,4.80
2017,05,25,21,09,8.10
2017,05,25,21,10,4.80
2017,05,25,21,11,6.40
2017,05,25,21,12,6.40
2017,05,25,21,13,6.40
2017,05,25,21,14,4.80
2017,05,25,21,15,6.40
2017,05,25,21,16,6.40
2017,05,25,21,17,4.80
2017,05,25,21,18,4.80
2017,05,25,21,19,1.60
2017,05,25,21,20,1.60
2017,05,25,21,22,1.60
2017,05,25,21,25,1.60
2017,05,25,21,26,1.60
